THORAD DELTA 1 DEB, 8177

Orbit data source: Space-Track

THORAD DELTA 1 DEB, 8177 is space debris in SSO originally from a launch on Fri, 15 Nov 1974 UTC launched from the Air Force Western Test Range (AFWTR). Debris objects in space refer to the collection of defunct objects orbiting the Earth. Examples of debris include non-operational satellites, rocket bodies, and fragments generated from explosions, collisions, or faulty payload assembly.

Loading next visibility...
Identifier
8177, 1974-089AT
Orbit
SSO
Country
Flag of USUS
Related business
Manufacturer
Unknown
Mission
Spacecraft
Bus & Motor
Unknown
Mass
Unknown
Launch date (UTC)
1974-11-15 (51 years ago)
Launch vehicle
Unknown
Launch site
Air Force Western Test Range (AFWTR)
Object type
Payload
Rocket body
Debris
Shape & HBR
Unknown shape, 0.2 m
Radar Cross Section
Medium (>0.1 m² and <1 m²)

Expand to show TLE details & history
Last TLE update: 15 hours ago

TLE from 15 hours ago
0 THORAD DELTA 1 DEB
1  8177U 74089AT  26036.29096346  .00000246  00000-0  29421-2 0  9999
2  8177 101.1027 166.9040 0261434  24.1366   4.1877 12.05383356253840
Epoch: 2026-02-05T06:58Z
TLE epoch observation values (Epoch: 2026-02-05T06:58:59.242Z)
Latitude
28.01018°
Longitude
-79.25032°
Altitude
1,450.474 km
Speed
7.232 km/s
True Right ascension
10h 43m 46s
True Declination
27° 52' 50"
Sunlit
Object was in full shadow at epoch
Visualization orbit readout
Latitude
Unknown
Longitude
Unknown
Altitude
Unknown
Speed
Unknown
Apparent Right ascension
Unknown
Apparent Declination
Unknown
Sunlit
N/A
Visualization observer readout
Local Sidereal Time
23:57:06
Azimuth
Unknown
Elevation
Unknown
Doppler factor
Unknown
Orbital elements
Apogee altitude
1,864.413 km
Perigee altitude
1,444.417 km
Semi-major axis
8,032.552 km
Eccentricity
0.02614
Inclination
101.1027°
RAAN
166.904°
Arg. of periapsis
24.1366°
True anomaly
4.41383°
Mean anomaly
4.1877°
Eccentric anomaly
4.30001°
Mean motion
3.01483 °/min
Orbital period
119.41 mins
BSTAR
0.0029421
Loading maneuver chart data...
Computing Atmospheric mass density...

Documentation

Showing up to 5 results
|